Home   Weather   Sousse   Past weeks
Flag for Tunisia

Past Weather in Sousse, Tunisia — Yesterday and Last 2 Weeks

Now
59 °F

Passing clouds.


Feels Like: 56 °F
Forecast: 65 / 50 °F
Wind: 17 mph from North

Location: Habib Bourguiba

Current Time: Apr 4, 2020 at 11:15:15 pm

Latest Report: Apr 4, 2020 at 10:30 pm


Visibility: 5 mi

Pressure: 30.09 "Hg

Humidity: 68%

Dew Point: 48 °F

Location of SousseLocation

Past Weather in Sousse — Graph

°F

Sousse Temperature Yesterday

Maximum temperature yesterday: 63 °F (at 11:30 am)
Minimum temperature yesterday: 55 °F (at 1:30 pm)
Average temperature yesterday: 58 °F

High & Low Weather Summary for the Past Weeks

 TemperatureHumidityPressure
High75 °F (Mar 31, 4:00 pm)100% (Mar 22, 1:30 am)30.09 "Hg (Mar 22, 1:30 am)
Low45 °F (Mar 26, 5:00 am)36% (Mar 31, 4:00 pm)29.56 "Hg (Mar 25, 7:30 am)
Average58 °F79%29.88 "Hg
* Reported Mar 20 10:00 pm — Apr 4 10:00 pm, Sousse. Weather by CustomWeather, © 2020

Note: Actual official high and low records may vary slightly from our data, if they occured in-between our weather recording intervals... More about our weather records

Sousse Weather History for the Previous 24 Hours

Scroll right to see more
 ConditionsComfort  
Time TempWeatherWind HumidityBarometerVisibility
10:00 pm
Sat, Apr 4
59 °FPassing clouds.18 mph72%30.09 "Hg5 mi
9:30 pm59 °FPassing clouds.17 mph77%30.09 "Hg5 mi
9:00 pm59 °FPassing clouds.17 mph77%30.09 "Hg5 mi
8:00 pm61 °FPassing clouds.18 mph68%30.07 "Hg5 mi
7:30 pm61 °FPassing clouds.18 mph68%30.07 "Hg5 mi
7:00 pm61 °FPassing clouds.18 mph68%30.04 "Hg5 mi
6:30 pm61 °FScattered clouds.17 mph68%30.04 "Hg5 mi
6:00 pm61 °FScattered clouds.18 mph68%30.04 "Hg5 mi
5:30 pm63 °FScattered clouds.17 mph68%30.01 "Hg5 mi
5:00 pm63 °FScattered clouds.18 mph68%30.01 "Hg5 mi
4:30 pm63 °FScattered clouds.16 mph68%30.01 "Hg5 mi
4:00 pm63 °FScattered clouds.18 mph68%30.01 "Hg5 mi
3:30 pm63 °FScattered clouds.18 mph68%30.01 "Hg5 mi
3:00 pm64 °FScattered clouds.17 mph64%30.01 "Hg5 mi
2:30 pm64 °FScattered clouds.16 mph64%30.01 "Hg5 mi
1:30 pm64 °FScattered clouds.16 mph64%30.04 "Hg5 mi
1:00 pm64 °FScattered clouds.15 mph64%30.04 "Hg5 mi
12:30 pm63 °FScattered clouds.20 mph68%30.04 "Hg5 mi
12:00 pm63 °FScattered clouds.18 mph64%30.04 "Hg4 mi
11:30 am63 °FScattered clouds.20 mph64%30.04 "Hg4 mi
11:00 am61 °FScattered clouds.20 mph68%30.04 "Hg4 mi
10:30 am59 °FScattered clouds.23 mph77%30.04 "Hg4 mi
10:00 am59 °FScattered clouds.23 mph77%30.04 "Hg4 mi
9:30 am59 °FScattered clouds.25 mph77%30.01 "Hg4 mi
8:30 am59 °FScattered clouds.17 mph72%29.98 "Hg4 mi
8:00 am57 °FScattered clouds.18 mph77%29.98 "Hg4 mi
7:30 am57 °FScattered clouds.18 mph77%29.98 "Hg4 mi
7:00 am57 °FScattered clouds.20 mph77%29.95 "Hg4 mi
6:30 am55 °FScattered clouds.20 mph82%29.95 "Hg4 mi
6:00 am55 °FScattered clouds.22 mph82%29.95 "Hg4 mi
5:30 am57 °FPassing clouds.21 mph77%29.95 "Hg4 mi
5:00 am55 °FPassing clouds.21 mph82%29.92 "Hg4 mi
4:30 am55 °FPassing clouds.21 mph82%29.92 "Hg4 mi
4:00 am55 °FPassing clouds.21 mph82%29.92 "Hg4 mi
3:30 am55 °FPassing clouds.21 mph82%29.92 "Hg4 mi
3:00 am55 °FPassing clouds.22 mph77%29.92 "Hg4 mi
2:30 am55 °FPassing clouds.21 mph82%29.89 "Hg4 mi
2:00 am55 °FPassing clouds.18 mph82%29.89 "Hg4 mi
1:30 am55 °FPassing clouds.18 mph82%29.89 "Hg4 mi
1:00 am57 °FPassing clouds.16 mph77%29.92 "Hg4 mi
12:30 am57 °FPassing clouds.16 mph82%29.92 "Hg4 mi
12:00 am57 °FPassing clouds.21 mph77%29.89 "Hg4 mi
11:30 pm
Fri, Apr 3
57 °FPassing clouds.20 mph77%29.89 "Hg4 mi
11:00 pm57 °FPassing clouds.21 mph72%29.89 "Hg4 mi
Weather by CustomWeather, © 2020

See weather overview

Advertising